Regional Weather Roundup
Issued by NWS

Home | Current Version | Previous Version | Text Only | Print | Product List | Glossary On
Versions: 1 2 3 4 5 6 7 8 9 10 11 12 13 14 15 16 17 18 19 20 21 22 23 24 25 26 27 28 29 30 31 32 33 34 35 36 37 38 39 40 41 42 43 44 45 46 47 48 49 50
000
ASUS46 KLOX 041513
RWRCA

SOUTHERN CALIFORNIA WEATHER ROUNDUP
NATIONAL WEATHER SERVICE OXNARD CALIFORNIA
800 AM PDT TUE AUG 04 2015

NOTE: "FAIR" INDICATES FEW OR NO CLOUDS BELOW 12,000 FEET WITH NO
SIGNIFICANT WEATHER AND/OR OBSTRUCTIONS TO VISIBILITY.

  -  STATIONS PRECEEDED BY AN ASTERISK (*) ARE NOT NWS OR FAA
     STATIONS AND ARE NOT SUBJECT TO NWS AND FAA QUALITY CONTROL.

CAZ041-042-087-041600-
LA AND ORANGE COUNTY COASTAL AREAS


CITY           SKY/WX    TMP DP  RH WIND       PRES   REMARKS
L.A. DOWNTOWN  SUNNY     72  62  71 CALM      29.90R
L.A. AIRPORT   MOSUNNY   71  63  75 S5        29.92R
LONG BEACH     SUNNY     73  62  68 E5        29.91R

CITY           SKY/WX    TMP DP  RH WIND       PRES   REMARKS
AVALON           N/A     68 N/A N/A MISG        N/A
FULLERTON      SUNNY     72  61  68 CALM      29.90R
*GETTY CENTER    N/A     70  59  68 SE2         N/A
HAWTHORNE      SUNNY     71  63  75 CALM      29.92R
*LOS ALAMITOS  SUNNY     71  64  78 SE3       29.91R
*REDONDO BEACH   N/A     67  64  89 CALM      29.92R
SANTA ANA      MOSUNNY   71  64  78 S6        29.91R
STA MONICA APT SUNNY     72  63  73 CALM      29.92R
*STA MON PIER    N/A     74  66  75 CALM      29.91R
TORRANCE       MOSUNNY   73  64  73 CALM      29.92R
*UCLA            N/A     72  59  64 E1        29.90R

$$

CAZ547-548-048-041600-
LA COUNTY VALLEYS AND INLAND EMPIRE


CITY           SKY/WX    TMP DP  RH WIND       PRES   REMARKS
BURBANK        SUNNY     73  57  57 CALM      29.92R
VAN NUYS       SUNNY     71  58  63 CALM      29.93R

CITY           SKY/WX    TMP DP  RH WIND       PRES   REMARKS
CORONA AIRPORT SUNNY     70  61  73 CALM      29.93R
*CHATSWORTH      N/A     75  60  58 CALM      29.91R
CHINO          SUNNY     72  62  71 CALM      29.93R
MARCH AFB      SUNNY     72  64  74 CALM      29.95R
*NORTHRIDGE      N/A     73  57  56 CALM        N/A
ONTARIO        MOSUNNY   73  61  65 CALM      29.93R
*PASADENA        N/A     75  63  64 CALM        N/A
POMONA         SUNNY     72  59  64 CALM      29.96R
RIVERSIDE      SUNNY     72  61  68 CALM      29.93R
SAN BERNARDINO SUNNY     70  55  60 CALM      29.94S
*WHITEMAN AP   SUNNY     72  48  43 CALM      29.96

$$

CAZ054-055-041600-
LA AND SAN BERNARDINO COUNTY MOUNTAINS


CITY           SKY/WX    TMP DP  RH WIND       PRES   REMARKS
*BIG BEAR AIRP SUNNY     59  39  47 CALM      30.28R
SANDBERG       SUNNY     71  47  42 W10       30.11R

$$

CAZ028-029-059-060-099-041600-
ANTELOPE VALLEY AND SURROUNDING AREAS


CITY           SKY/WX    TMP DP  RH WIND       PRES   REMARKS
LANCASTER      SUNNY     78  50  37 W6        29.97R
PALMDALE       SUNNY     76  50  40 CALM      29.97S

CITY           SKY/WX    TMP DP  RH WIND       PRES   REMARKS
29 PALMS       MOSUNNY   78  34  20 NW3       30.01R
BARSTOW/DAGGET SUNNY     80  46  30 NW7       29.93R
BISHOP         SUNNY     72  41  32 NW5       30.05R
CHINA LAKE     SUNNY     77  33  20 N3        29.92R
EDWARDS AFB    MOSUNNY   78  50  37 SW10      29.94R
MOJAVE         SUNNY     79  50  36 SW13      29.97R
NEEDLES        SUNNY     93  40  15 CALM      29.85R
VICTORVILLE    SUNNY     75  43  31 CALM      30.00R

$$

CAZ039-040-041600-
VENTURA AND SANTA BARBARA COUNTY COAST


CITY           SKY/WX    TMP DP  RH WIND       PRES   REMARKS
CAMARILLO      SUNNY     68  59  73 CALM      29.92R
OXNARD AIRPORT SUNNY     70  60  70 CALM      29.91R
*POINT MUGU    MOSUNNY   69  61  75 NE5       29.92R
SBA APT/GOLETA SUNNY     71  63  75 SE5       29.90S
*SANTA BARBARA   N/A     71  62  74 CALM      29.98S
*VENTURA         N/A     66  62  85 CALM      29.53S

$$

CAZ044-045-041600-
VENTURA COUNTY VALLEYS


CITY           SKY/WX    TMP DP  RH WIND       PRES   REMARKS
*SIMI VALLEY     N/A     69  60  73 CALM      29.88R
*OJAI            N/A     71  64  78 CALM      29.85F

$$

CAZ053-041600-
VENTURA COUNTY MOUNTAINS


CITY           SKY/WX    TMP DP  RH WIND       PRES   REMARKS

$$

CAZ034-035-036-041600-
CENTRAL COAST AND SANTA YNEZ VALLEY


CITY           SKY/WX    TMP DP  RH WIND       PRES   REMARKS
SAN LUIS OBISP SUNNY     62  55  77 SE3       29.98R
SANTA MARIA    MOSUNNY   64  59  83 CALM      29.99R

CITY           SKY/WX    TMP DP  RH WIND       PRES   REMARKS
*LOMPOC        SUNNY     63  54  72 CALM      29.99S
*PISMO BEACH     N/A     65  58  80 CALM      29.99R
*SANTA YNEZ    FAIR      63  54  72 E3        29.99S

$$

CAZ037-038-051-041600-
SAN LUIS OBISPO COUNTY INTERIOR AND CUYAMA VALLEY


CITY           SKY/WX    TMP DP  RH WIND       PRES   REMARKS
*CUYAMA          N/A     68  54  62 SE2       29.88S
PASO ROBLES    SUNNY     61  52  72 NW6       29.99S

$$

CAZ032-033-061-041600-
SOUTHERN DESERTS


CITY           SKY/WX    TMP DP  RH WIND       PRES   REMARKS
BLYTHE         SUNNY     91  45  20 N3        29.82R
IMPERIAL       SUNNY     85  57  38 N3        29.78R
PALM SPRINGS   SUNNY     87  50  27 CALM      29.84R
THERMAL        SUNNY     85  55  35 CALM      29.78R

$$

ELSEWHERE ACROSS THE WESTERN UNITED STATES AND MEXICO


CITY           SKY/WX    TMP DP  RH WIND       PRES   REMARKS
DENVER, CO     MOSUNNY   72  46  39 E5        30.10R
GRAND CANYON,  SUNNY     72  42  34 CALM      30.31R
HONOLULU, HI   PTCLDY    73  66  78 N6        29.85S
KAHULUI, MAUI  CLEAR     75  72  88 N6        29.86R
LAKE TAHOE, CA SUNNY     55  37  50 S5        30.20S
LAS VEGAS, NV  SUNNY     89  38  16 S7        29.88R
MAMMOTH LAKES, FAIR      55  36  47 CALM      30.26S
MEXICO CITY, M SUNNY     63  52  67 E6        30.37
PHOENIX, AZ    SUNNY     92  53  26 E6        29.87R
PORTLAND, OR   MOSUNNY   62  53  72 NW8       30.04R
RENO, NV       MOSUNNY   65  39  38 CALM      30.10F
SALT LAKE CITY MOSUNNY   66  55  67 SE8       30.12S
SAN DIEGO, CA  PTSUNNY   71  64  78 NE3       29.93R
SAN FRANCISCO, MOSUNNY   63  56  78 W6        29.99S
SAN JOSE, CA   PTSUNNY   63  53  70 CALM      29.97F
SEATTLE, WA    CLOUDY    59  54  83 SW3       30.02S
TIJUANA, MEX   MOSUNNY   68  63  83 CALM      29.95

$$

STATION/POSITION TIME  TEMP    WIND        PRES    VSBY  WAVE
                       AIR SEA DIR/SP/G                  HT/PER
                 (UTC) (F)     (DEG/KT/KT) (MB)    (MI)  (FT/S)
POINT ARGUELLO B NOT AVBL
WEST SANTA BARBA 1450   63 63  320/ 19/ 23 1013.3R         3/ 4
POINT CONCEPTION NOT AVBL
EAST SANTA BARBA 1500   68 67  160/  2/  4 1013.5R
SANTA MONICA BAY 1450   70 72  280/  6/  8 1013.2R         4/ 6


USA.gov is the U.S. government's official web portal to all federal, state and local government web resources and services.